Date,TemperatureHighF,TemperatureAvgF,TemperatureLowF,DewpointHighF,DewpointAvgF,DewpointLowF,HumidityHigh,HumidityAvg,HumidityLow,PressureMaxIn,PressureMinIn,WindSpeedMaxMPH,WindSpeedAvgMPH,GustSpeedMaxMPH,PrecipitationSumIn
2013-1-1,21,17,13,-100,-100,-100,0,0,100,0.00,40.00,0,-999,0,0.00
2013-1-2,27,18,7,-100,-100,-100,0,0,100,0.00,40.00,0,-999,0,0.00
2013-1-3,30,25,18,-100,-100,-100,0,0,100,0.00,40.00,0,-999,0,0.00
2013-1-4,32,25,13,-100,-100,-100,0,0,100,0.00,40.00,0,-999,0,0.00
2013-1-5,38,33,25,-100,-100,-100,0,0,100,0.00,40.00,0,-999,0,0.00
2013-1-6,36,27,21,-100,-100,-100,0,0,100,0.00,40.00,0,-999,0,0.00
2013-1-7,37,28,19,-100,-100,-100,0,0,100,0.00,40.00,0,-999,0,0.00
2013-1-8,44,37,29,-100,-100,-100,0,0,100,0.00,40.00,0,-999,0,0.00
2013-1-9,50,38,29,-100,-100,-100,0,0,100,0.00,40.00,0,-999,0,0.00
2013-1-10,51,41,32,-100,-100,-100,0,0,100,0.00,40.00,0,-999,0,0.00
2013-1-11,58,54,49,-100,-100,-100,0,0,100,0.00,40.00,0,-999,0,0.00
2013-1-12,54,42,29,-100,-100,-100,0,0,100,0.00,40.00,0,-999,0,0.00
2013-1-13,25,20,16,-100,-100,-100,0,0,100,0.00,40.00,0,-999,0,0.00
2013-1-14,29,19,14,-100,-100,-100,0,0,100,0.00,40.00,0,-999,0,0.00
2013-1-15,32,24,15,-100,-100,-100,0,0,100,0.00,40.00,0,-999,0,0.00
2013-1-16,37,29,18,-100,-100,-100,0,0,100,0.00,40.00,0,-999,0,0.00
2013-1-17,34,30,25,-100,-100,-100,0,0,100,0.00,40.00,0,-999,0,0.00
2013-1-18,42,33,21,-100,-100,-100,0,0,100,0.00,40.00,0,-999,0,0.00
2013-1-19,53,44,38,-100,-100,-100,0,0,100,0.00,40.00,0,-999,0,0.00
2013-1-20,27,20,17,-100,-100,-100,0,0,100,0.00,40.00,0,-999,0,0.00
2013-1-21,14,10,7,-100,-100,-100,0,0,100,0.00,40.00,0,-999,0,0.00
2013-1-22,16,9,3,-100,-100,-100,0,0,100,0.00,40.00,0,-999,0,0.00
2013-1-23,34,24,14,-100,-100,-100,0,0,100,0.00,40.00,0,-999,0,0.00
2013-1-24,25,19,10,-100,-100,-100,0,0,100,0.00,40.00,0,-999,0,0.00
2013-1-25,37,29,24,-100,-100,-100,0,0,100,0.00,40.00,0,-999,0,0.00
2013-1-26,38,24,13,-100,-100,-100,0,0,100,0.00,40.00,0,-999,0,0.00
2013-1-27,44,33,22,-100,-100,-100,0,0,100,0.00,40.00,0,-999,0,0.00
2013-1-28,65,57,47,-100,-100,-100,0,0,100,0.00,40.00,0,-999,0,0.00
2013-1-29,64,60,54,-100,-100,-100,0,0,100,0.00,40.00,0,-999,0,0.00
2013-1-30,51,33,22,-100,-100,-100,0,0,100,0.00,40.00,0,-999,0,0.00
2013-1-31,22,15,5,-100,-100,-100,0,0,100,0.00,40.00,0,-999,0,0.00
2013-2-1,21,11,2,-100,-100,-100,0,0,100,0.00,40.00,0,-999,0,0.00
2013-2-2,31,24,19,-100,-100,-100,0,0,100,0.00,40.00,0,-999,0,0.00
2013-2-3,29,25,20,-100,-100,-100,0,0,100,0.00,40.00,0,-999,0,0.00
2013-2-4,45,32,26,-100,-100,-100,0,0,100,0.00,40.00,0,-999,0,0.00
2013-2-5,42,34,25,-100,-100,-100,0,0,100,0.00,40.00,0,-999,0,0.00
2013-2-6,50,35,24,-100,-100,-100,0,0,100,0.00,40.00,0,-999,0,0.00
2013-2-7,41,38,36,-100,-100,-100,0,0,100,0.00,40.00,0,-999,0,0.00
2013-2-8,33,30,28,-100,-100,-100,0,0,100,0.00,40.00,0,-999,0,0.00
2013-2-9,38,33,29,-100,-100,-100,0,0,100,0.00,40.00,0,-999,0,0.00
2013-2-10,51,45,37,-100,-100,-100,0,0,100,0.00,40.00,0,-999,0,0.00
2013-2-11,43,36,31,-100,-100,-100,0,0,100,0.00,40.00,0,-999,0,0.00
2013-2-12,38,31,25,-100,-100,-100,0,0,100,0.00,40.00,0,-999,0,0.00
2013-2-13,49,37,28,-100,-100,-100,0,0,100,0.00,40.00,0,-999,0,0.00
2013-2-14,43,38,32,-100,-100,-100,0,0,100,0.00,40.00,0,-999,0,0.00
2013-2-15,35,28,23,-100,-100,-100,0,0,100,0.00,40.00,0,-999,0,0.00
2013-2-16,32,24,16,-100,-100,-100,0,0,100,0.00,40.00,0,-999,0,0.00
2013-2-17,37,29,16,-100,-100,-100,0,0,100,0.00,40.00,0,-999,0,0.00
2013-2-18,54,43,29,-100,-100,-100,0,0,100,0.00,40.00,0,-999,0,0.00
2013-2-19,24,21,18,-100,-100,-100,0,0,100,0.00,40.00,0,-999,0,0.00
2013-2-20,25,18,7,-100,-100,-100,0,0,100,0.00,40.00,0,-999,0,0.00
2013-2-21,31,25,18,-100,-100,-100,0,0,100,0.00,40.00,0,-999,0,0.00
2013-2-22,32,30,25,-100,-100,-100,0,0,100,0.00,40.00,0,-999,0,0.00
2013-2-23,28,23,15,-100,-100,-100,0,0,100,0.00,40.00,0,-999,0,0.00
2013-2-24,43,32,16,-100,-100,-100,0,0,100,0.00,40.00,0,-999,0,0.00
2013-2-25,47,36,28,-100,-100,-100,0,0,100,0.00,40.00,0,-999,0,0.00
2013-2-26,34,32,31,-100,-100,-100,0,0,100,0.00,40.00,0,-999,0,0.00
2013-2-27,32,30,29,-100,-100,-100,0,0,100,0.00,40.00,0,-999,0,0.00
2013-2-28,34,32,31,-100,-100,-100,0,0,100,0.00,40.00,0,-999,0,0.00
2013-3-1,33,29,25,-100,-100,-100,0,0,100,0.00,40.00,0,-999,0,0.00
2013-3-2,30,26,22,-100,-100,-100,0,0,100,0.00,40.00,0,-999,0,0.00
2013-3-3,36,27,14,-100,-100,-100,0,0,100,0.00,40.00,0,-999,0,0.00
2013-3-4,37,34,29,-100,-100,-100,0,0,100,0.00,40.00,0,-999,0,0.00
2013-3-5,34,31,29,-100,-100,-100,0,0,100,0.00,40.00,0,-999,0,0.00
2013-3-6,29,27,25,-100,-100,-100,0,0,100,0.00,40.00,0,-999,0,0.00
2013-3-7,41,32,26,-100,-100,-100,0,0,100,0.00,40.00,0,-999,0,0.00
2013-3-8,47,38,28,-100,-100,-100,0,0,100,0.00,40.00,0,-999,0,0.00
2013-3-9,58,47,39,-100,-100,-100,0,0,100,0.00,40.00,0,-999,0,0.00
2013-3-10,54,52,49,-100,-100,-100,0,0,100,0.00,40.00,0,-999,0,0.00
2013-3-11,43,34,32,-100,-100,-100,0,0,100,0.00,40.00,0,-999,0,0.00
2013-3-12,39,31,26,-100,-100,-100,0,0,100,0.00,40.00,0,-999,0,0.00
2013-3-13,36,28,22,-100,-100,-100,0,0,100,0.00,40.00,0,-999,0,0.00
2013-3-14,46,36,24,-100,-100,-100,0,0,100,0.00,40.00,0,-999,0,0.00
2013-3-15,62,46,30,-100,-100,-100,0,0,100,0.00,40.00,0,-999,0,0.00
2013-3-16,47,39,34,-100,-100,-100,0,0,100,0.00,40.00,0,-999,0,0.00
2013-3-17,40,36,31,-100,-100,-100,0,0,100,0.00,40.00,0,-999,0,0.00
2013-3-18,44,36,29,-100,-100,-100,0,0,100,0.00,40.00,0,-999,0,0.00
2013-3-19,42,32,22,-100,-100,-100,0,0,100,0.00,40.00,0,-999,0,0.00
2013-3-20,29,23,17,-100,-100,-100,0,0,100,0.00,40.00,0,-999,0,0.00
2013-3-21,39,25,14,-100,-100,-100,0,0,100,0.00,40.00,0,-999,0,0.00
2013-3-22,43,33,20,-100,-100,-100,0,0,100,0.00,40.00,0,-999,0,0.00
2013-3-23,55,43,33,-100,-100,-100,0,0,100,0.00,40.00,0,-999,0,0.00
2013-3-24,30,30,29,-100,-100,-100,0,0,100,0.00,40.00,0,-999,0,0.00
2013-3-25,34,30,26,-100,-100,-100,0,0,100,0.00,40.00,0,-999,0,0.00
2013-3-26,37,32,29,-100,-100,-100,0,0,100,0.00,40.00,0,-999,0,0.00
2013-3-27,40,34,26,-100,-100,-100,0,0,100,0.00,40.00,0,-999,0,0.00
2013-3-28,54,39,23,-100,-100,-100,0,0,100,0.00,40.00,0,-999,0,0.00
2013-3-29,62,46,34,-100,-100,-100,0,0,100,0.00,40.00,0,-999,0,0.00
2013-3-30,55,46,34,-100,-100,-100,0,0,100,0.00,40.00,0,-999,0,0.00
2013-3-31,61,52,45,-100,-100,-100,0,0,100,0.00,40.00,0,-999,0,0.00
2013-4-1,38,34,30,-100,-100,-100,0,0,100,0.00,40.00,0,-999,0,0.00
2013-4-2,47,39,25,-100,-100,-100,0,0,100,0.00,40.00,0,-999,0,0.00
2013-4-3,57,40,27,-100,-100,-100,0,0,100,0.00,40.00,0,-999,0,0.00
2013-4-4,60,46,30,-100,-100,-100,0,0,100,0.00,40.00,0,-999,0,0.00
2013-4-5,64,52,37,-100,-100,-100,0,0,100,0.00,40.00,0,-999,0,0.00
2013-4-6,68,60,45,-100,-100,-100,0,0,100,0.00,40.00,0,-999,0,0.00
2013-4-7,76,63,46,-100,-100,-100,0,0,100,0.00,40.00,0,-999,0,0.00
2013-4-8,76,68,58,-100,-100,-100,0,0,100,0.00,40.00,0,-999,0,0.00
2013-4-9,76,70,65,-100,-100,-100,0,0,100,0.00,40.00,0,-999,0,0.00
2013-4-10,69,56,44,-100,-100,-100,0,0,100,0.00,40.00,0,-999,0,0.00
2013-4-11,50,45,38,-100,-100,-100,0,0,100,0.00,40.00,0,-999,0,0.00
2013-4-12,42,40,37,-100,-100,-100,0,0,100,0.00,40.00,0,-999,0,0.00
2013-4-13,54,46,36,-100,-100,-100,0,0,100,0.00,40.00,0,-999,0,0.00
2013-4-14,75,64,47,-100,-100,-100,0,0,100,0.00,40.00,0,-999,0,0.00
2013-4-15,62,57,47,-100,-100,-100,0,0,100,0.00,40.00,0,-999,0,0.00
2013-4-16,52,47,43,-100,-100,-100,0,0,100,0.00,40.00,0,-999,0,0.00
2013-4-17,63,52,46,-100,-100,-100,0,0,100,0.00,40.00,0,-999,0,0.00
2013-4-18,71,56,40,-100,-100,-100,0,0,100,0.00,40.00,0,-999,0,0.00
2013-4-19,43,38,35,-100,-100,-100,0,0,100,0.00,40.00,0,-999,0,0.00
2013-4-20,52,39,30,-100,-100,-100,0,0,100,0.00,40.00,0,-999,0,0.00
2013-4-21,60,49,38,-100,-100,-100,0,0,100,0.00,40.00,0,-999,0,0.00
2013-4-22,69,59,42,-100,-100,-100,0,0,100,0.00,40.00,0,-999,0,0.00
2013-4-23,58,50,38,-100,-100,-100,0,0,100,0.00,40.00,0,-999,0,0.00
2013-4-24,50,43,35,-100,-100,-100,0,0,100,0.00,40.00,0,-999,0,0.00
2013-4-25,59,50,39,-100,-100,-100,0,0,100,0.00,40.00,0,-999,0,0.00
2013-4-26,62,53,40,-100,-100,-100,0,0,100,0.00,40.00,0,-999,0,0.00
2013-4-27,58,53,47,-100,-100,-100,0,0,100,0.00,40.00,0,-999,0,0.00
2013-4-28,64,56,52,-100,-100,-100,0,0,100,0.00,40.00,0,-999,0,0.00
2013-4-29,75,62,45,-100,-100,-100,0,0,100,0.00,40.00,0,-999,0,0.00
2013-4-30,85,75,62,-100,-100,-100,0,0,100,0.00,40.00,0,-999,0,0.00
2013-5-1,83,72,58,-100,-100,-100,0,0,100,0.00,40.00,0,-999,0,0.00
2013-5-2,69,60,48,-100,-100,-100,0,0,100,0.00,40.00,0,-999,0,0.00
2013-5-3,61,51,46,-100,-100,-100,0,0,100,0.00,40.00,0,-999,0,0.00
2013-5-4,58,52,47,-100,-100,-100,0,0,100,0.00,40.00,0,-999,0,0.00
2013-5-5,67,60,51,-100,-100,-100,0,0,100,0.00,40.00,0,-999,0,0.00
2013-5-6,77,68,54,-100,-100,-100,0,0,100,0.00,40.00,0,-999,0,0.00
2013-5-7,86,73,59,-100,-100,-100,0,0,100,0.00,40.00,0,-999,0,0.00
2013-5-8,83,70,55,-100,-100,-100,0,0,100,0.00,40.00,0,-999,0,0.00
2013-5-9,67,65,62,-100,-100,-100,0,0,100,0.00,40.00,0,-999,0,0.00
2013-5-10,63,57,52,-100,-100,-100,0,0,100,0.00,40.00,0,-999,0,0.00
2013-5-11,63,55,50,-100,-100,-100,0,0,100,0.00,40.00,0,-999,0,0.00
2013-5-12,58,50,40,-100,-100,-100,0,0,100,0.00,40.00,0,-999,0,0.00
2013-5-13,72,60,40,-100,-100,-100,0,0,100,0.00,40.00,0,-999,0,0.00
2013-5-14,91,76,57,-100,-100,-100,0,0,100,0.00,40.00,0,-999,0,0.00
2013-5-15,89,79,71,-100,-100,-100,0,0,100,0.00,40.00,0,-999,0,0.00
2013-5-16,81,75,68,-100,-100,-100,0,0,100,0.00,40.00,0,-999,0,0.00
2013-5-17,80,72,62,-100,-100,-100,0,0,100,0.00,40.00,0,-999,0,0.00
2013-5-18,83,74,65,-100,-100,-100,0,0,100,0.00,40.00,0,-999,0,0.00
2013-5-19,89,79,68,-100,-100,-100,0,0,100,0.00,40.00,0,-999,0,0.00
2013-5-20,87,76,64,-100,-100,-100,0,0,100,0.00,40.00,0,-999,0,0.00
2013-5-21,81,75,65,-100,-100,-100,0,0,100,0.00,40.00,0,-999,0,0.00
2013-5-22,74,67,64,-100,-100,-100,0,0,100,0.00,40.00,0,-999,0,0.00
2013-5-23,66,60,55,-100,-100,-100,0,0,100,0.00,40.00,0,-999,0,0.00
2013-5-24,75,56,43,-100,-100,-100,0,0,100,0.00,40.00,0,-999,0,0.00
2013-5-25,58,55,52,-100,-100,-100,0,0,100,0.00,40.00,0,-999,0,0.00
2013-5-26,68,59,53,-100,-100,-100,0,0,100,0.00,40.00,0,-999,0,0.00
2013-5-27,75,66,62,-100,-100,-100,0,0,100,0.00,40.00,0,-999,0,0.00
2013-5-28,82,75,67,-100,-100,-100,0,0,100,0.00,40.00,0,-999,0,0.00
2013-5-29,85,78,65,-100,-100,-100,0,0,100,0.00,40.00,0,-999,0,0.00
2013-5-30,82,75,65,-100,-100,-100,0,0,100,0.00,40.00,0,-999,0,0.00
2013-5-31,77,71,65,-100,-100,-100,0,0,100,0.00,40.00,0,-999,0,0.00
2013-6-1,76,69,65,-100,-100,-100,0,0,100,0.00,40.00,0,-999,0,0.00
2013-6-2,65,62,60,-100,-100,-100,0,0,100,0.00,40.00,0,-999,0,0.00
2013-6-3,74,64,54,-100,-100,-100,0,0,100,0.00,40.00,0,-999,0,0.00
2013-6-4,76,68,52,-100,-100,-100,0,0,100,0.00,40.00,0,-999,0,0.00
2013-6-5,86,72,58,-100,-100,-100,0,0,100,0.00,40.00,0,-999,0,0.00
2013-6-6,77,69,62,-100,-100,-100,0,0,100,0.00,40.00,0,-999,0,0.00
2013-6-7,75,66,57,-100,-100,-100,0,0,100,0.00,40.00,0,-999,0,0.00
2013-6-8,80,71,58,-100,-100,-100,0,0,100,0.00,40.00,0,-999,0,0.00
2013-6-9,80,70,64,-100,-100,-100,0,0,100,0.00,40.00,0,-999,0,0.00
2013-6-10,79,72,65,-100,-100,-100,0,0,100,0.00,40.00,0,-999,0,0.00
2013-6-11,92,79,63,-100,-100,-100,0,0,100,0.00,40.00,0,-999,0,0.00
2013-6-12,95,87,77,-100,-100,-100,0,0,100,0.00,40.00,0,-999,0,0.00
2013-6-13,88,79,69,-100,-100,-100,0,0,100,0.00,40.00,0,-999,0,0.00
2013-6-14,85,74,60,-100,-100,-100,0,0,100,0.00,40.00,0,-999,0,0.00
2013-6-15,82,74,67,-100,-100,-100,0,0,100,0.00,40.00,0,-999,0,0.00
2013-6-16,83,76,69,-100,-100,-100,0,0,100,0.00,40.00,0,-999,0,0.00
2013-6-17,91,80,69,-100,-100,-100,0,0,100,0.00,40.00,0,-999,0,0.00
2013-6-18,88,79,67,-100,-100,-100,0,0,100,0.00,40.00,0,-999,0,0.00
2013-6-19,88,76,62,-100,-100,-100,0,0,100,0.00,40.00,0,-999,0,0.00
2013-6-20,87,78,69,-100,-100,-100,0,0,100,0.00,40.00,0,-999,0,0.00
2013-6-22,87,76,71,-100,-100,-100,0,0,100,0.00,40.00,0,-999,0,0.00
2013-6-23,83,76,71,-100,-100,-100,0,0,100,0.00,40.00,0,-999,0,0.00
2013-6-24,91,78,71,-100,-100,-100,0,0,100,0.00,40.00,0,-999,0,0.00
2013-6-25,93,80,73,-100,-100,-100,0,0,100,0.00,40.00,0,-999,0,0.00
2013-6-26,83,77,72,-100,-100,-100,0,0,100,0.00,40.00,0,-999,0,0.00
2013-6-27,91,81,76,-100,-100,-100,0,0,100,0.00,40.00,0,-999,0,0.00
2013-6-28,87,80,72,-100,-100,-100,0,0,100,0.00,40.00,0,-999,0,0.00
2013-6-29,76,71,66,-100,-100,-100,0,0,100,0.00,40.00,0,-999,0,0.00
2013-6-30,80,72,62,-100,-100,-100,0,0,100,0.00,40.00,0,-999,0,0.00
2013-7-1,83,74,64,-100,-100,-100,0,0,100,0.00,40.00,0,-999,0,0.00
2013-7-2,76,68,64,-100,-100,-100,0,0,100,0.00,40.00,0,-999,0,0.00
2013-7-3,84,72,62,-100,-100,-100,0,0,100,0.00,40.00,0,-999,0,0.00
2013-7-4,85,77,66,-100,-100,-100,0,0,100,0.00,40.00,0,-999,0,0.00
2013-7-5,85,76,65,-100,-100,-100,0,0,100,0.00,40.00,0,-999,0,0.00
2013-7-6,86,76,68,-100,-100,-100,0,0,100,0.00,40.00,0,-999,0,0.00
2013-7-7,91,81,71,-100,-100,-100,0,0,100,0.00,40.00,0,-999,0,0.00
2013-7-8,89,82,79,-100,-100,-100,0,0,100,0.00,40.00,0,-999,0,0.00
2013-7-9,94,86,80,-100,-100,-100,0,0,100,0.00,40.00,0,-999,0,0.00
2013-7-10,89,81,73,-100,-100,-100,0,0,100,0.00,40.00,0,-999,0,0.00
2013-7-11,88,74,65,-100,-100,-100,0,0,100,0.00,40.00,0,-999,0,0.00
2013-7-12,88,73,60,-100,-100,-100,0,0,100,0.00,40.00,0,-999,0,0.00
2013-7-13,89,76,63,-100,-100,-100,0,0,100,0.00,40.00,0,-999,0,0.00
2013-7-14,90,81,69,-100,-100,-100,0,0,100,0.00,40.00,0,-999,0,0.00
2013-7-15,92,83,73,-100,-100,-100,0,0,100,0.00,40.00,0,-999,0,0.00
2013-7-16,94,84,76,-100,-100,-100,0,0,100,0.00,40.00,0,-999,0,0.00
2013-7-17,97,86,76,-100,-100,-100,0,0,100,0.00,40.00,0,-999,0,0.00
2013-7-18,97,88,77,-100,-100,-100,0,0,100,0.00,40.00,0,-999,0,0.00
2013-7-19,96,88,80,-100,-100,-100,0,0,100,0.00,40.00,0,-999,0,0.00
2013-7-20,91,83,76,-100,-100,-100,0,0,100,0.00,40.00,0,-999,0,0.00
2013-7-21,82,77,73,-100,-100,-100,0,0,100,0.00,40.00,0,-999,0,0.00
2013-7-22,89,79,69,-100,-100,-100,0,0,100,0.00,40.00,0,-999,0,0.00
2013-7-23,88,80,70,-100,-100,-100,0,0,100,0.00,40.00,0,-999,0,0.00
2013-7-24,83,71,60,-100,-100,-100,0,0,100,0.00,40.00,0,-999,0,0.00
2013-7-25,84,71,58,-100,-100,-100,0,0,100,0.00,40.00,0,-999,0,0.00
2013-7-26,75,70,64,-100,-100,-100,0,0,100,0.00,40.00,0,-999,0,0.00
2013-7-27,71,64,58,-100,-100,-100,0,0,100,0.00,40.00,0,-999,0,0.00
2013-7-28,77,66,52,-100,-100,-100,0,0,100,0.00,40.00,0,-999,0,0.00
2013-7-29,81,69,55,-100,-100,-100,0,0,100,0.00,40.00,0,-999,0,0.00
2013-7-30,73,70,67,-100,-100,-100,0,0,100,0.00,40.00,0,-999,0,0.00
2013-7-31,78,73,69,-100,-100,-100,0,0,100,0.00,40.00,0,-999,0,0.00
2013-8-1,88,74,65,-100,-100,-100,0,0,100,0.00,40.00,0,-999,0,0.00
2013-8-2,83,75,68,-100,-100,-100,0,0,100,0.00,40.00,0,-999,0,0.00
2013-8-3,87,76,69,-100,-100,-100,0,0,100,0.00,40.00,0,-999,0,0.00
2013-8-4,84,71,60,-100,-100,-100,0,0,100,0.00,40.00,0,-999,0,0.00
2013-8-5,80,71,62,-100,-100,-100,0,0,100,0.00,40.00,0,-999,0,0.00
2013-8-6,88,76,70,-100,-100,-100,0,0,100,0.00,40.00,0,-999,0,0.00
2013-8-7,84,77,73,-100,-100,-100,0,0,100,0.00,40.00,0,-999,0,0.00
2013-8-8,86,78,71,-100,-100,-100,0,0,100,0.00,40.00,0,-999,0,0.00
2013-8-9,87,76,63,-100,-100,-100,0,0,100,0.00,40.00,0,-999,0,0.00
2013-8-10,84,76,67,-100,-100,-100,0,0,100,0.00,40.00,0,-999,0,0.00
2013-8-11,87,75,60,-100,-100,-100,0,0,100,0.00,40.00,0,-999,0,0.00
2013-8-12,83,75,66,-100,-100,-100,0,0,100,0.00,40.00,0,-999,0,0.00
2013-8-13,80,70,61,-100,-100,-100,0,0,100,0.00,40.00,0,-999,0,0.00
2013-8-14,82,66,51,-100,-100,-100,0,0,100,0.00,40.00,0,-999,0,0.00
2013-8-15,80,67,55,-100,-100,-100,0,0,100,0.00,40.00,0,-999,0,0.00
2013-8-16,84,72,63,-100,-100,-100,0,0,100,0.00,40.00,0,-999,0,0.00
2013-8-17,83,71,58,-100,-100,-100,0,0,100,0.00,40.00,0,-999,0,0.00
2013-8-18,89,73,60,-100,-100,-100,0,0,100,0.00,40.00,0,-999,0,0.00
2013-8-19,88,76,64,-100,-100,-100,0,0,100,0.00,40.00,0,-999,0,0.00
2013-8-20,87,75,65,-100,-100,-100,0,0,100,0.00,40.00,0,-999,0,0.00
2013-8-21,89,80,68,-100,-100,-100,0,0,100,0.00,40.00,0,-999,0,0.00
2013-8-22,86,80,74,-100,-100,-100,0,0,100,0.00,40.00,0,-999,0,0.00
2013-8-23,91,78,70,-100,-100,-100,0,0,100,0.00,40.00,0,-999,0,0.00
2013-8-24,89,78,65,-100,-100,-100,0,0,100,0.00,40.00,0,-999,0,0.00
2013-8-25,90,79,65,-100,-100,-100,0,0,100,0.00,40.00,0,-999,0,0.00
2013-8-26,94,84,73,-100,-100,-100,0,0,100,0.00,40.00,0,-999,0,0.00
2013-8-27,91,83,76,-100,-100,-100,0,0,100,0.00,40.00,0,-999,0,0.00
2013-8-28,95,90,84,-100,-100,-100,0,0,100,0.00,40.00,0,-999,0,0.00
2013-8-29,94,82,73,-100,-100,-100,0,0,100,0.00,40.00,0,-999,0,0.00
2013-8-30,98,85,73,-100,-100,-100,0,0,100,0.00,40.00,0,-999,0,0.00
2013-8-31,97,86,76,-100,-100,-100,0,0,100,0.00,40.00,0,-999,0,0.00
2013-9-1,88,79,72,-100,-100,-100,0,0,100,0.00,40.00,0,-999,0,0.00
2013-9-2,87,76,65,-100,-100,-100,0,0,100,0.00,40.00,0,-999,0,0.00
2013-9-3,83,72,58,-100,-100,-100,0,0,100,0.00,40.00,0,-999,0,0.00
2013-9-4,87,71,57,-100,-100,-100,0,0,100,0.00,40.00,0,-999,0,0.00
2013-9-5,94,74,60,-100,-100,-100,0,0,100,0.00,40.00,0,-999,0,0.00
2013-9-6,90,76,64,-100,-100,-100,0,0,100,0.00,40.00,0,-999,0,0.00
2013-9-7,91,78,66,-100,-100,-100,0,0,100,0.00,40.00,0,-999,0,0.00
2013-9-8,89,80,72,-100,-100,-100,0,0,100,0.00,40.00,0,-999,0,0.00
2013-9-9,97,84,73,-100,-100,-100,0,0,100,0.00,40.00,0,-999,0,0.00
2013-9-10,98,86,73,-100,-100,-100,0,0,100,0.00,40.00,0,-999,0,0.00
2013-9-11,94,84,73,-100,-100,-100,0,0,100,0.00,40.00,0,-999,0,0.00
2013-9-12,84,75,63,-100,-100,-100,0,0,100,0.00,40.00,0,-999,0,0.00
2013-9-13,77,64,54,-100,-100,-100,0,0,100,0.00,40.00,0,-999,0,0.00
2013-9-14,76,61,44,-100,-100,-100,0,0,100,0.00,40.00,0,-999,0,0.00
2013-9-15,76,64,54,-100,-100,-100,0,0,100,0.00,40.00,0,-999,0,0.00
2013-9-16,76,65,55,-100,-100,-100,0,0,100,0.00,40.00,0,-999,0,0.00
2013-9-17,76,62,54,-100,-100,-100,0,0,100,0.00,40.00,0,-999,0,0.00
2013-9-18,68,67,65,-100,-100,-100,0,0,100,0.00,40.00,0,-999,0,0.00
2013-9-19,92,89,83,-100,-100,-100,0,0,100,0.00,40.00,0,-999,0,0.00
2013-9-20,73,70,63,-100,-100,-100,0,0,100,0.00,40.00,0,-999,0,0.00
2013-9-21,74,62,54,-100,-100,-100,0,0,100,0.00,40.00,0,-999,0,0.00
2013-9-22,81,62,48,-100,-100,-100,0,0,100,0.00,40.00,0,-999,0,0.00
2013-9-23,79,66,50,-100,-100,-100,0,0,100,0.00,40.00,0,-999,0,0.00
2013-9-24,82,69,50,-100,-100,-100,0,0,100,0.00,40.00,0,-999,0,0.00
2013-9-25,87,73,58,-100,-100,-100,0,0,100,0.00,40.00,0,-999,0,0.00
2013-9-26,88,69,58,-100,-100,-100,0,0,100,0.00,40.00,0,-999,0,0.00
2013-9-27,84,70,53,-100,-100,-100,0,0,100,0.00,40.00,0,-999,0,0.00
2013-9-28,83,72,57,-100,-100,-100,0,0,100,0.00,40.00,0,-999,0,0.00
2013-9-29,76,62,55,-100,-100,-100,0,0,100,0.00,40.00,0,-999,0,0.00
2013-9-30,78,65,48,-100,-100,-100,0,0,100,0.00,40.00,0,-999,0,0.00
2013-10-1,76,73,69,-100,-100,-100,0,0,100,0.00,40.00,0,-999,0,0.00
2013-10-2,84,74,69,-100,-100,-100,0,0,100,0.00,40.00,0,-999,0,0.00
2013-10-3,86,74,65,-100,-100,-100,0,0,100,0.00,40.00,0,-999,0,0.00
2013-10-4,88,79,69,-100,-100,-100,0,0,100,0.00,40.00,0,-999,0,0.00
2013-10-5,80,73,58,-100,-100,-100,0,0,100,0.00,40.00,0,-999,0,0.00
2013-10-6,56,51,48,-100,-100,-100,0,0,100,0.00,40.00,0,-999,0,0.00
2013-10-7,72,56,44,-100,-100,-100,0,0,100,0.00,40.00,0,-999,0,0.00
2013-10-8,79,60,47,-100,-100,-100,0,0,100,0.00,40.00,0,-999,0,0.00
2013-10-9,80,60,47,-100,-100,-100,0,0,100,0.00,40.00,0,-999,0,0.00
2013-10-10,82,64,50,-100,-100,-100,0,0,100,0.00,40.00,0,-999,0,0.00
2013-10-11,80,69,56,-100,-100,-100,0,0,100,0.00,40.00,0,-999,0,0.00
2013-10-12,73,66,59,-100,-100,-100,0,0,100,0.00,40.00,0,-999,0,0.00
2013-10-13,73,58,43,-100,-100,-100,0,0,100,0.00,40.00,0,-999,0,0.00
2013-10-14,72,54,39,-100,-100,-100,0,0,100,0.00,40.00,0,-999,0,0.00
2013-10-15,67,62,56,-100,-100,-100,0,0,100,0.00,40.00,0,-999,0,0.00
2013-10-16,54,50,45,-100,-100,-100,0,0,100,0.00,40.00,0,-999,0,0.00
2013-10-17,60,52,47,-100,-100,-100,0,0,100,0.00,40.00,0,-999,0,0.00
2013-10-18,57,51,42,-100,-100,-100,0,0,100,0.00,40.00,0,-999,0,0.00
2013-10-19,54,46,39,-100,-100,-100,0,0,100,0.00,40.00,0,-999,0,0.00
2013-10-20,70,55,43,-100,-100,-100,0,0,100,0.00,40.00,0,-999,0,0.00
2013-10-21,55,46,36,-100,-100,-100,0,0,100,0.00,40.00,0,-999,0,0.00
2013-10-22,47,38,32,-100,-100,-100,0,0,100,0.00,40.00,0,-999,0,0.00
2013-10-23,44,38,34,-100,-100,-100,0,0,100,0.00,40.00,0,-999,0,0.00
2013-10-24,40,36,30,-100,-100,-100,0,0,100,0.00,40.00,0,-999,0,0.00
2013-10-25,52,38,25,-100,-100,-100,0,0,100,0.00,40.00,0,-999,0,0.00
2013-10-26,58,47,38,-100,-100,-100,0,0,100,0.00,40.00,0,-999,0,0.00
2013-10-27,58,44,29,-100,-100,-100,0,0,100,0.00,40.00,0,-999,0,0.00
2013-10-28,70,49,32,-100,-100,-100,0,0,100,0.00,40.00,0,-999,0,0.00
2013-10-29,61,50,38,-100,-100,-100,0,0,100,0.00,40.00,0,-999,0,0.00
2013-10-30,67,61,54,-100,-100,-100,0,0,100,0.00,40.00,0,-999,0,0.00
2013-10-31,63,58,47,-100,-100,-100,0,0,100,0.00,40.00,0,-999,0,0.00
2013-11-1,54,48,43,-100,-100,-100,0,0,100,0.00,40.00,0,-999,0,0.00
2013-11-2,50,44,39,-100,-100,-100,0,0,100,0.00,40.00,0,-999,0,0.00
2013-11-3,58,44,30,-100,-100,-100,0,0,100,0.00,40.00,0,-999,0,0.00
2013-11-4,57,52,45,-100,-100,-100,0,0,100,0.00,40.00,0,-999,0,0.00
2013-11-5,58,54,51,-100,-100,-100,0,0,100,0.00,40.00,0,-999,0,0.00
2013-11-6,57,47,36,-100,-100,-100,0,0,100,0.00,40.00,0,-999,0,0.00
2013-11-7,48,38,29,-100,-100,-100,0,0,100,0.00,40.00,0,-999,0,0.00
2013-11-8,51,42,27,-100,-100,-100,0,0,100,0.00,40.00,0,-999,0,0.00
2013-11-9,64,53,45,-100,-100,-100,0,0,100,0.00,40.00,0,-999,0,0.00
2013-11-10,51,40,33,-100,-100,-100,0,0,100,0.00,40.00,0,-999,0,0.00
2013-11-11,55,44,29,-100,-100,-100,0,0,100,0.00,40.00,0,-999,0,0.00
2013-11-12,31,23,18,-100,-100,-100,0,0,100,0.00,40.00,0,-999,0,0.00
2013-11-13,40,31,18,-100,-100,-100,0,0,100,0.00,40.00,0,-999,0,0.00
2013-11-14,55,43,31,-100,-100,-100,0,0,100,0.00,40.00,0,-999,0,0.00
2013-11-15,52,46,41,-100,-100,-100,0,0,100,0.00,40.00,0,-999,0,0.00
2013-11-16,62,57,47,-100,-100,-100,0,0,100,0.00,40.00,0,-999,0,0.00
2013-11-17,73,61,45,-100,-100,-100,0,0,100,0.00,40.00,0,-999,0,0.00
2013-11-18,50,42,36,-100,-100,-100,0,0,100,0.00,40.00,0,-999,0,0.00
2013-11-19,48,35,24,-100,-100,-100,0,0,100,0.00,40.00,0,-999,0,0.00
2013-11-20,43,37,30,-100,-100,-100,0,0,100,0.00,40.00,0,-999,0,0.00
2013-11-21,51,48,44,-100,-100,-100,0,0,100,0.00,40.00,0,-999,0,0.00
2013-11-22,45,35,28,-100,-100,-100,0,0,100,0.00,40.00,0,-999,0,0.00
2013-11-23,28,21,15,-100,-100,-100,0,0,100,0.00,40.00,0,-999,0,0.00
2013-11-24,29,19,9,-100,-100,-100,0,0,100,0.00,40.00,0,-999,0,0.00
2013-11-25,32,29,24,-100,-100,-100,0,0,100,0.00,40.00,0,-999,0,0.00
2013-11-26,34,27,18,-100,-100,-100,0,0,100,0.00,40.00,0,-999,0,0.00
2013-11-27,25,18,11,-100,-100,-100,0,0,100,0.00,40.00,0,-999,0,0.00
2013-11-28,37,29,19,-100,-100,-100,0,0,100,0.00,40.00,0,-999,0,0.00
2013-11-29,38,28,15,-100,-100,-100,0,0,100,0.00,40.00,0,-999,0,0.00
2013-11-30,54,41,30,-100,-100,-100,0,0,100,0.00,40.00,0,-999,0,0.00
2013-12-1,51,40,31,-100,-100,-100,0,0,100,0.00,40.00,0,-999,0,0.00
2013-12-2,48,41,33,-100,-100,-100,0,0,100,0.00,40.00,0,-999,0,0.00
2013-12-3,52,47,43,-100,-100,-100,0,0,100,0.00,40.00,0,-999,0,0.00
2013-12-4,59,51,43,-100,-100,-100,0,0,100,0.00,40.00,0,-999,0,0.00
2013-12-5,30,23,20,-100,-100,-100,0,0,100,0.00,40.00,0,-999,0,0.00
2013-12-6,19,16,11,-100,-100,-100,0,0,100,0.00,40.00,0,-999,0,0.00
2013-12-7,23,14,6,-100,-100,-100,0,0,100,0.00,40.00,0,-999,0,0.00
2013-12-8,25,22,17,-100,-100,-100,0,0,100,0.00,40.00,0,-999,0,0.00
2013-12-9,23,18,14,-100,-100,-100,0,0,100,0.00,40.00,0,-999,0,0.00
2013-12-10,29,19,7,-100,-100,-100,0,0,100,0.00,40.00,0,-999,0,0.00
2013-12-11,23,15,3,-100,-100,-100,0,0,100,0.00,40.00,0,-999,0,0.00
2013-12-12,33,21,3,-100,-100,-100,0,0,100,0.00,40.00,0,-999,0,0.00
2013-12-13,38,30,20,-100,-100,-100,0,0,100,0.00,40.00,0,-999,0,0.00
2013-12-14,34,30,21,-100,-100,-100,0,0,100,0.00,40.00,0,-999,0,0.00
2013-12-15,26,19,14,-100,-100,-100,0,0,100,0.00,40.00,0,-999,0,0.00
2013-12-16,23,21,17,-100,-100,-100,0,0,100,0.00,40.00,0,-999,0,0.00
2013-12-17,32,25,21,-100,-100,-100,0,0,100,0.00,40.00,0,-999,0,0.00
2013-12-18,40,29,10,-100,-100,-100,0,0,100,0.00,40.00,0,-999,0,0.00
2013-12-19,49,44,38,-100,-100,-100,0,0,100,0.00,40.00,0,-999,0,0.00
2013-12-20,58,48,32,-100,-100,-100,0,0,100,0.00,40.00,0,-999,0,0.00
2013-12-21,32,31,29,-100,-100,-100,0,0,100,0.00,40.00,0,-999,0,0.00
2013-12-22,32,28,22,-100,-100,-100,0,0,100,0.00,40.00,0,-999,0,0.00
2013-12-23,19,14,8,-100,-100,-100,0,0,100,0.00,40.00,0,-999,0,0.00
2013-12-24,19,11,2,-100,-100,-100,0,0,100,0.00,40.00,0,-999,0,0.00
2013-12-25,30,25,20,-100,-100,-100,0,0,100,0.00,40.00,0,-999,0,0.00
2013-12-26,40,32,21,-100,-100,-100,0,0,100,0.00,40.00,0,-999,0,0.00
2013-12-27,47,38,28,-100,-100,-100,0,0,100,0.00,40.00,0,-999,0,0.00
2013-12-28,54,44,38,-100,-100,-100,0,0,100,0.00,40.00,0,-999,0,0.00
2013-12-29,38,22,10,-100,-100,-100,0,0,100,0.00,40.00,0,-999,0,0.00
2013-12-30,19,10,2,-100,-100,-100,0,0,100,0.00,40.00,0,-999,0,0.00
2013-12-31,31,24,15,-100,-100,-100,0,0,100,0.00,40.00,0,-999,0,0.00
2014-1-1,31,25,21,-100,-100,-100,0,0,100,0.00,40.00,0,-999,0,0.00
2014-1-2,20,11,4,-100,-100,-100,0,0,100,0.00,40.00,0,-999,0,0.00